Вернуться в каталог

STARLINK-31508

АктивенСвязьVLEO
NORAD 59503·PAYLOAD·🇺🇸 United States

Запущен Apr 13, 2024 с Cape Canaveral Space Force Station

Loading…

Ближайшие Пролёты (ближайшие 24 часа)

TLE

СвежийSource: CelesTrak SupGP

Эпоха: Sep 14, 2026, 22:35 UTC

1 59503C 24071V   26257.94145833 -.00015015  00000+0 -54391-3 0  2570
2 59503  43.0025 351.3494 0001599 266.1607 127.2748 15.27581050    15

Отслеживайте STARLINK-31508 в реальном времени с AllMySat

Download on the App Store